Location: Unspecified
(0.0000°N, 0.0000°E)
Time: 15:14:45
(UTC+00:00)

STARLINK-31970 - Visible Passes

Search period start: 15 June 2025 00:00
Search period end: 25 June 2025 00:00
Orbit: 482 x 484 km, 43.0° (Epoch: 15 June)

Date Brightness Start Highest point End Pass type
(mag) Time Alt. Az. Time Alt. Az. Time Alt. Az.
16 Jun ? 19:14:42 10° NE 19:15:20 10° NE 19:15:29 10° NE visible
17 Jun ? 20:22:39 10° WNW 20:23:31 16° WNW 20:23:31 16° WNW visible
18 Jun ? 19:54:43 10° WNW 19:57:17 37° W 19:57:17 37° W visible
19 Jun ? 19:26:45 10° NW 19:30:26 57° SW 19:31:03 49° S visible
20 Jun ? 18:58:42 10° NW 19:02:24 61° SW 19:04:47 21° SSE visible
21 Jun ? 18:30:36 10° NW 18:34:19 65° SW 18:38:03 10° SE visible
24 Jun ? 05:20:26 12° SW 05:23:53 77° NW 05:27:38 10° NE visible
